Location: Oso Ridge
(35.0450°N, 108.0864°W)
Time: 10:41:25
(UTC-07:00)

Amateur Radio Satellites - All Passes

Search period start: 03 December 2016 10:11
Search period end: 04 December 2016 10:11
Location: Oso Ridge, 35.0450°N, 108.0864°W

Satellite Date Start Highest point End Downlink Frequencies (MHz)
Time Altitude Azimuth
POPSAT HIP 1 03 Dec 10:24:52 10:28:21 25° 70° (ENE) 10:31:51 437.405
JAS-2 03 Dec 10:32:41 10:39:21 59° 74° (ENE) 10:45:16 435.910
TIGRISAT 03 Dec 10:34:29 10:38:24 26° 264° (W) 10:42:20 435.000
ANTELSAT 03 Dec 10:35:14 10:39:03 24° 265° (W) 10:42:52 437.575/2403.000
CUSAT 1 03 Dec 10:35:55 10:38:34 19° 280° (W) 10:40:52 437.405
DANDE 03 Dec 10:47:52 10:53:24 79° 278° (W) 10:57:30 436.750
CUBEBUG 1 03 Dec 10:52:02 10:54:01 13° 92° (E) 10:55:59 437.445
Cosmos 2499 03 Dec 11:07:30 11:14:33 27° 71° (ENE) 11:21:11 435.465 / 435.565
HUMSAT D 03 Dec 11:09:53 11:13:10 24° 289° (WNW) 11:16:26 437.325/437.525
PCSat 03 Dec 11:11:18 11:15:51 28° 108° (ESE) 11:20:25 145.827
GONETS M04 03 Dec 11:18:25 11:25:50 30° 73° (ENE) 11:33:13
BUGSAT 1 03 Dec 11:19:30 11:23:18 34° 72° (ENE) 11:27:08 437.445
NANOSAT C BR1 03 Dec 11:20:55 11:25:09 72° 258° (WSW) 11:29:26 145.865
QB50P2 03 Dec 11:23:45 11:27:57 56° 259° (W) 11:32:11 145.880/145.840
POLYITAN 1 03 Dec 11:24:20 11:28:34 59° 259° (W) 11:32:50 437.675
AO-85 03 Dec 11:25:41 11:29:11 30° 55° (NE) 11:32:37 145.980
ESTCUBE 1 03 Dec 11:32:01 11:36:30 67° 101° (E) 11:41:00 437.505/2401.250
QB50P1 03 Dec 11:38:41 11:42:42 40° 261° (W) 11:46:44 145.935-145.965
DUCHIFAT 1 03 Dec 11:45:05 11:49:04 39° 261° (W) 11:53:05 145.980
SPROUT 03 Dec 11:49:35 11:53:08 25° 96° (E) 11:56:38 437.525
AISAT 03 Dec 11:51:52 11:56:10 45° 100° (E) 12:00:26 437.250
POPSAT HIP 1 03 Dec 12:00:36 12:04:01 23° 264° (W) 12:07:27 437.405
RS-15 03 Dec 12:18:11 12:24:15 14° 350° (N) 12:30:21 29.354- 29.394
JAS-2 03 Dec 12:19:53 12:24:32 19° 265° (W) 12:28:52 435.910
50 SAT 03 Dec 12:25:18 12:28:51 78° 283° (WNW) 12:32:24 437.505
CUBEBUG 1 03 Dec 12:26:14 12:30:30 47° 286° (WNW) 12:34:45 437.445
Gurwin Techsat 1B 03 Dec 12:28:41 12:32:49 24° 67° (ENE) 12:36:58 435.225
VELOX 1 03 Dec 12:28:53 12:33:21 70° 284° (WNW) 12:37:46 145.980
JUGNU 03 Dec 12:47:29 12:50:55 16° 172° (S) 12:54:21 437.505
DX 1 03 Dec 12:52:26 12:56:49 72° 284° (WNW) 13:01:11 434.975-435.025
PCSat 03 Dec 12:54:11 12:59:04 34° 303° (WNW) 13:03:59 145.827
Oscar 19 03 Dec 12:55:47 13:00:54 88° 77° (ENE) 13:06:03 437.125/150
BUGSAT 1 03 Dec 12:56:03 12:58:43 16° 266° (W) 13:01:24 437.445
Cosmos 2499 03 Dec 12:59:46 13:08:06 56° 270° (W) 13:15:50 435.465 / 435.565
UKube-1 03 Dec 13:05:38 13:09:58 69° 284° (WNW) 13:14:15 .
AO-85 03 Dec 13:06:47 13:09:17 16° 250° (WSW) 13:11:46 145.980
ESTCUBE 1 03 Dec 13:12:07 13:12:43 10° 296° (WNW) 13:13:17 437.505/2401.250
GONETS M04 03 Dec 13:14:35 13:22:53 51° 270° (W) 13:31:13
ITAMSAT 1 03 Dec 13:19:55 13:23:00 16° 64° (ENE) 13:26:05 435.822/435.867
TISAT 1 03 Dec 13:21:55 13:25:58 44° 99° (E) 13:29:59 437.305
SPROUT 03 Dec 13:25:31 13:28:55 23° 290° (WNW) 13:32:16 437.525
AISAT 03 Dec 13:29:44 13:32:12 15° 294° (WNW) 13:34:40 437.250
M-CUBED/EXP-1 PRIME 03 Dec 13:35:08 13:37:08 13° 96° (E) 13:39:05 437.505
AO-7 03 Dec 13:52:56 14:00:07 34° 62° (ENE) 14:07:19 29.400- 29.500
ITUPSAT 1 03 Dec 13:55:32 13:58:49 18° 95° (E) 14:02:04 437.325
Gurwin Techsat 1B 03 Dec 14:07:37 14:12:30 37° 262° (W) 14:17:26 435.225
SRMSAT 03 Dec 14:21:43 14:23:59 12° 167° (SSE) 14:26:15 437.500
BEESAT 3 03 Dec 14:22:08 14:25:37 28° 55° (NE) 14:29:05 437.485
JUGNU 03 Dec 14:35:20 14:39:12 18° 182° (S) 14:43:04 437.505
RS-15 03 Dec 14:35:26 14:44:04 21° 28° (NNE) 14:52:33 29.354- 29.394
BEESAT 2 03 Dec 14:45:01 14:48:18 23° 53° (NE) 14:51:33 435.950
ITAMSAT 1 03 Dec 14:56:50 15:01:57 56° 259° (W) 15:07:06 435.822/435.867
AUBIESAT-1 03 Dec 14:57:33 15:02:11 90° 271° (W) 15:06:35 437.475
TISAT 1 03 Dec 14:59:10 15:01:11 13° 294° (WNW) 15:03:11 437.305
MOZHAYETS 4 03 Dec 15:01:51 15:05:23 22° 95° (E) 15:08:54
SWISSCUBE 03 Dec 15:02:00 15:06:44 70° 285° (WNW) 15:11:27 437.505
BEESAT 03 Dec 15:06:23 15:11:07 71° 285° (WNW) 15:15:49 436.000
M-CUBED/EXP-1 PRIME 03 Dec 15:07:17 15:11:53 57° 290° (WNW) 15:16:19 437.505
ITUPSAT 1 03 Dec 15:32:20 15:36:43 38° 289° (WNW) 15:41:06 437.325
ISS 03 Dec 15:40:14 15:41:17 11° 126° (SE) 15:42:20 145.825
AO-7 03 Dec 15:44:37 15:52:32 49° 258° (WSW) 16:00:32 29.400- 29.500
KKS-1 03 Dec 15:52:49 15:56:51 32° 98° (E) 16:00:51 437.445
BRITE-PL 03 Dec 15:59:24 16:02:48 24° 69° (ENE) 16:06:21 437.365/2234.400
BEESAT 3 03 Dec 16:00:09 16:03:02 19° 250° (WSW) 16:05:54 437.485
HORYU 2 03 Dec 16:02:37 16:06:13 24° 69° (ENE) 16:09:50 437.375
STARS 03 Dec 16:07:24 16:10:44 21° 95° (E) 16:14:02 437.465
SRMSAT 03 Dec 16:08:36 16:12:24 18° 177° (S) 16:16:12 437.500
CUTE-I 03 Dec 16:14:50 16:15:35 10° 61° (ENE) 16:16:21 437.470
BEESAT 2 03 Dec 16:22:41 16:26:00 25° 248° (WSW) 16:29:18 435.950
O/OREOS (USA 219) 03 Dec 16:23:46 16:28:20 75° 108° (ESE) 16:32:53 437.305
JUGNU 03 Dec 16:24:52 16:27:28 13° 192° (SSW) 16:30:04 437.505
CUBESAT XI-V 03 Dec 16:33:16 16:37:21 30° 97° (E) 16:41:27 437.345
Cubesat XI-IV 03 Dec 16:36:46 16:40:17 18° 65° (ENE) 16:43:50 437.490
MOZHAYETS 4 03 Dec 16:38:35 16:42:30 29° 289° (WNW) 16:46:24
NOAA 15 03 Dec 16:43:22 16:47:25 23° 67° (ENE) 16:51:28 137.62
RS-15 03 Dec 16:47:32 16:59:49 63° 56° (NE) 17:11:36 29.354- 29.394
AIST 2 03 Dec 16:47:46 16:49:55 14° 48° (NE) 16:52:04 435.215
LilacSat-2 03 Dec 16:48:30 16:51:00 17° 70° (ENE) 16:53:30 437.200
ISS 03 Dec 17:14:11 17:17:24 54° 320° (NW) 17:20:39 145.825
Cosmos 2491 03 Dec 17:18:19 17:25:10 25° 71° (ENE) 17:31:58 435.465 / 435.565
HO-68 03 Dec 17:20:47 17:23:18 12° 55° (NE) 17:25:49 435.675
GOMX 1 03 Dec 17:26:36 17:31:00 85° 258° (WSW) 17:35:45 467.674
KKS-1 03 Dec 17:29:56 17:33:09 20° 292° (WNW) 17:36:23 437.445
NOAA 18 03 Dec 17:35:07 17:40:18 43° 70° (ENE) 17:45:31 137.9125
BRITE-PL 03 Dec 17:37:56 17:41:14 22° 266° (W) 17:44:40 437.365/2234.400
HORYU 2 03 Dec 17:38:52 17:42:37 26° 263° (W) 17:46:24 437.375
STARS 03 Dec 17:43:14 17:47:03 29° 290° (WNW) 17:50:51 437.465
YUBILEINY 03 Dec 17:46:05 17:50:33 15° 78° (ENE) 17:55:01 435.215
CUTE-I 03 Dec 17:49:26 17:54:49 89° 255° (WSW) 18:00:13 437.470
DOVE 4 03 Dec 17:51:00 17:55:36 70° 75° (ENE) 18:00:32 437.250
CINEMA 3 03 Dec 17:54:04 17:57:28 19° 67° (ENE) 18:00:55 145.822/145.860
SRMSAT 03 Dec 17:57:20 18:00:50 16° 187° (S) 18:04:21 437.500
CUBESAT XI-V 03 Dec 18:10:55 18:14:31 23° 291° (WNW) 18:18:09 437.345
Cubesat XI-IV 03 Dec 18:14:41 18:19:54 52° 260° (W) 18:25:09 437.490
LilacSat-2 03 Dec 18:21:44 18:25:03 27° 263° (W) 18:28:23 437.200
NOAA 15 03 Dec 18:22:06 18:26:55 37° 261° (W) 18:31:46 137.62
AIST 2 03 Dec 18:24:34 18:28:43 56° 244° (WSW) 18:32:50 435.215
CUBEBUG 2 03 Dec 18:32:48 18:34:20 11° 65° (ENE) 18:35:53 437.445
Cosmos 2504 03 Dec 18:41:42 18:46:31 17° 78° (ENE) 18:51:28 435.465 / 435.565
CUTE 1.7 + AOD 2 03 Dec 18:48:30 18:52:24 38° 73° (ENE) 18:56:19 437.475
RS-15 03 Dec 19:01:01 19:11:32 36° 256° (WSW) 19:21:45 29.354- 29.394
HO-68 03 Dec 19:02:40 19:09:47 75° 73° (ENE) 19:16:57 435.675
STRAND 1 03 Dec 19:03:12 19:07:57 38° 98° (E) 19:12:40 437.568
CANX-2 03 Dec 19:05:34 19:09:47 75° 76° (ENE) 19:14:00 2200.000
Cosmos 2491 03 Dec 19:13:59 19:22:30 62° 269° (W) 19:31:01 435.465 / 435.565
NOAA 18 03 Dec 19:16:57 19:21:04 21° 265° (W) 19:25:14 137.9125
UWE-3 03 Dec 19:18:45 19:22:25 23° 70° (ENE) 19:26:04 435.000/436.395/437.385
AAUSAT CUBESAT 2 03 Dec 19:25:31 19:29:13 34° 73° (ENE) 19:32:56 437.432
CINEMA 3 03 Dec 19:29:37 19:34:12 41° 263° (W) 19:38:55 145.822/145.860
SEEDS 03 Dec 19:36:47 19:40:57 81° 256° (WSW) 19:45:08 437.485
YUBILEINY 03 Dec 19:37:21 19:46:03 88° 277° (W) 19:54:50 435.215
AIST 1 03 Dec 19:51:36 19:55:44 50° 93° (E) 19:59:56
COMPASS 1 03 Dec 19:52:28 19:56:36 80° 258° (WSW) 20:00:44 437.405
SO-50 03 Dec 19:53:02 19:57:13 31° 112° (ESE) 20:01:22 436.795
PCSat 03 Dec 20:03:21 20:05:57 13° 47° (NE) 20:08:32 145.827
ZACube-1 03 Dec 20:05:15 20:09:36 45° 74° (ENE) 20:13:56 437.345
CUBEBUG 2 03 Dec 20:05:37 20:10:20 67° 259° (W) 20:15:05 437.445
FUNcube-1 03 Dec 20:14:28 20:18:54 53° 74° (ENE) 20:23:17 145.935
HUMSAT D 03 Dec 20:24:49 20:25:43 11° 66° (ENE) 20:26:39 437.325/437.525
CUTE 1.7 + AOD 2 03 Dec 20:26:06 20:28:22 14° 267° (W) 20:30:36 437.475
Cosmos 2504 03 Dec 20:30:27 20:38:37 82° 277° (W) 20:47:23 435.465 / 435.565
PRISM 03 Dec 20:38:19 20:41:36 22° 96° (E) 20:44:52 437.425
STRAND 1 03 Dec 20:43:03 20:46:49 21° 293° (WNW) 20:50:37 437.568
DELFI C3 03 Dec 20:47:34 20:51:12 38° 73° (ENE) 20:54:51 145.870
Oscar 11 03 Dec 20:48:49 20:53:06 62° 260° (W) 20:57:23 145.826/435.025
HO-68 03 Dec 20:53:46 20:58:03 17° 268° (W) 21:02:24 435.675
UWE-3 03 Dec 20:54:35 20:58:40 30° 263° (W) 21:02:45 435.000/436.395/437.385
AAUSAT CUBESAT 2 03 Dec 21:02:21 21:04:45 15° 266° (W) 21:07:10 437.432
CUSAT 1 03 Dec 21:07:50 21:11:27 64° 263° (W) 21:16:12 437.405
DANDE 03 Dec 21:28:32 21:31:10 35° 81° (E) 21:34:18 436.750
AIST 1 03 Dec 21:32:40 21:33:38 11° 288° (WNW) 21:34:37
SO-50 03 Dec 21:33:36 21:37:39 27° 307° (NW) 21:41:40 436.795
YUBILEINY 03 Dec 21:39:28 21:44:03 15° 295° (WNW) 21:48:42 435.215
ZACube-1 03 Dec 21:43:34 21:46:02 14° 267° (W) 21:48:29 437.345
PCSat 03 Dec 21:44:34 21:50:01 85° 244° (WSW) 21:55:25 145.827
FUNcube-1 03 Dec 21:53:36 21:55:21 12° 268° (W) 21:57:06 145.935
HUMSAT D 03 Dec 21:56:40 22:00:49 56° 259° (W) 22:04:58 437.325/437.525
UNISAT 6 03 Dec 21:57:56 22:02:03 39° 98° (E) 22:06:05 437.425
PRISM 03 Dec 22:13:25 22:16:47 24° 290° (WNW) 22:20:08 437.425
DELFI C3 03 Dec 22:24:36 22:26:09 12° 267° (W) 22:27:41 145.870
ESTCUBE 1 03 Dec 22:28:17 22:32:26 40° 73° (ENE) 22:36:37 437.505/2401.250
TIGRISAT 03 Dec 22:28:34 22:32:59 86° 103° (ESE) 22:37:16 435.000
ANTELSAT 03 Dec 22:29:20 22:33:45 87° 287° (WNW) 22:38:03 437.575/2403.000
Cosmos 2504 03 Dec 22:29:21 22:33:25 14° 296° (WNW) 22:37:37 435.465 / 435.565
SPROUT 03 Dec 22:41:12 22:43:18 13° 66° (ENE) 22:45:24 437.525
AISAT 03 Dec 22:46:14 22:49:55 27° 70° (ENE) 22:53:37 437.250
50 SAT 03 Dec 22:57:53 23:00:41 23° 71° (ENE) 23:03:30 437.505
NANOSAT C BR1 03 Dec 23:09:09 23:12:29 22° 96° (E) 23:15:46 145.865
QB50P2 03 Dec 23:12:11 23:15:52 28° 97° (E) 23:19:31 145.880/145.840
POLYITAN 1 03 Dec 23:12:51 23:16:28 27° 97° (E) 23:20:02 437.675
CUBEBUG 1 03 Dec 23:18:22 23:22:42 89° 258° (WSW) 23:27:06 437.445
VELOX 1 03 Dec 23:22:32 23:26:53 67° 76° (ENE) 23:31:18 145.980
QB50P1 03 Dec 23:26:26 23:30:26 39° 99° (E) 23:34:22 145.935-145.965
JAS-2 03 Dec 23:30:04 23:35:13 63° 102° (ESE) 23:40:37 435.910
DUCHIFAT 1 03 Dec 23:32:12 23:36:09 38° 99° (E) 23:40:04 145.980
UNISAT 6 03 Dec 23:35:47 23:38:23 16° 293° (WNW) 23:40:58 437.425
Cosmos 2499 03 Dec 23:40:02 23:46:19 24° 81° (E) 23:52:48 435.465 / 435.565
DX 1 03 Dec 23:44:22 23:48:38 62° 75° (ENE) 23:52:57 434.975-435.025
ISS 03 Dec 23:44:45 23:47:51 36° 37° (NE) 23:50:56 145.825
POPSAT HIP 1 03 Dec 23:47:31 23:51:46 72° 101° (E) 23:55:58 437.405
UKube-1 03 Dec 23:56:31 00:00:46 63° 75° (ENE) 00:05:02 .
ESTCUBE 1 04 Dec 00:06:45 00:09:22 15° 267° (W) 00:12:01 437.505/2401.250
TISAT 1 04 Dec 00:10:43 00:13:59 22° 69° (ENE) 00:17:16 437.305
SPROUT 04 Dec 00:14:40 00:18:47 45° 261° (W) 00:22:56 437.525
GONETS M04 04 Dec 00:15:16 00:23:06 39° 87° (E) 00:30:54
AISAT 04 Dec 00:22:49 00:26:18 23° 264° (W) 00:29:49 437.250
50 SAT 04 Dec 00:31:45 00:33:56 16° 265° (W) 00:36:06 437.505
BUGSAT 1 04 Dec 00:39:14 00:43:27 88° 283° (WNW) 00:47:35 437.445
NANOSAT C BR1 04 Dec 00:44:40 00:48:06 25° 290° (WNW) 00:51:30 145.865
QB50P2 04 Dec 00:48:22 00:51:26 20° 291° (WNW) 00:54:30 145.880/145.840
POLYITAN 1 04 Dec 00:48:54 00:52:04 21° 291° (WNW) 00:55:12 437.675
Gurwin Techsat 1B 04 Dec 00:50:07 00:51:32 11° 91° (E) 00:52:56 435.225
ITUPSAT 1 04 Dec 00:59:47 01:02:39 16° 66° (ENE) 01:05:30 437.325
QB50P1 04 Dec 01:03:28 01:05:49 15° 293° (WNW) 01:08:11 145.935-145.965
DUCHIFAT 1 04 Dec 01:09:06 01:11:27 15° 293° (WNW) 01:13:48 145.980
Oscar 19 04 Dec 01:10:45 01:15:38 40° 99° (E) 01:20:30 437.125/150
JAS-2 04 Dec 01:17:33 01:19:48 13° 296° (WNW) 01:22:06 435.910
PHONESAT 2.4 04 Dec 01:20:03 01:22:41 78° 158° (SSE) 01:25:21 2401.200-2431.200
ISS 04 Dec 01:21:53 01:24:08 17° 232° (SW) 01:26:22 145.825
Cosmos 2499 04 Dec 01:30:16 01:38:34 65° 279° (W) 01:47:22 435.465 / 435.565
AO-85 04 Dec 01:36:20 01:40:32 27° 112° (ESE) 01:44:31 145.980
AUBIESAT-1 04 Dec 01:39:47 01:43:42 62° 70° (ENE) 01:47:57 437.475
TISAT 1 04 Dec 01:45:56 01:49:28 25° 264° (W) 01:53:01 437.305
M-CUBED/EXP-1 PRIME 04 Dec 01:49:57 01:53:52 77° 255° (WSW) 01:58:08 437.505
MOZHAYETS 4 04 Dec 02:01:29 02:04:08 15° 67° (ENE) 02:06:48
SWISSCUBE 04 Dec 02:04:51 02:09:38 89° 248° (WSW) 02:14:26 437.505
BEESAT 04 Dec 02:09:10 02:13:57 90° 275° (W) 02:18:45 436.000
GONETS M04 04 Dec 02:11:44 02:19:45 40° 284° (WNW) 02:27:48
Gurwin Techsat 1B 04 Dec 02:26:37 02:31:56 73° 285° (WNW) 02:37:13 435.225
ITUPSAT 1 04 Dec 02:35:26 02:40:03 47° 260° (W) 02:44:40 437.325
O/OREOS (USA 219) 04 Dec 02:37:04 02:41:34 83° 70° (ENE) 02:46:01 437.305
KKS-1 04 Dec 02:48:11 02:51:30 21° 68° (ENE) 02:54:50 437.445
Oscar 19 04 Dec 02:50:48 02:54:39 21° 293° (WNW) 02:58:29 437.125/150
PHONESAT 2.4 04 Dec 02:55:47 02:58:08 27° 351° (N) 03:00:29 2401.200-2431.200
STARS 04 Dec 03:02:08 03:04:12 13° 65° (ENE) 03:06:18 437.465
ITAMSAT 1 04 Dec 03:12:52 03:18:02 68° 102° (ESE) 03:23:09 435.822/435.867
AO-85 04 Dec 03:16:26 03:20:52 31° 305° (NW) 03:25:01 145.980
Cosmos 2499 04 Dec 03:32:23 03:33:32 10° 300° (WNW) 03:34:43 435.465 / 435.565
CUBESAT XI-V 04 Dec 03:33:58 03:37:20 21° 69° (ENE) 03:40:43 437.345
MOZHAYETS 4 04 Dec 03:36:30 03:40:53 45° 261° (W) 03:45:18
AO-7 04 Dec 03:49:19 03:57:42 72° 105° (ESE) 04:06:02 29.400- 29.500
BRITE-PL 04 Dec 04:07:14 04:10:04 14° 92° (E) 04:12:56 437.365/2234.400
KKS-1 04 Dec 04:23:54 04:27:50 30° 263° (W) 04:31:48 437.445
SO-50 04 Dec 04:28:43 04:30:47 13° 45° (NE) 04:32:50 436.795
PHONESAT 2.4 04 Dec 04:31:29 04:33:48 26° 8° (N) 04:36:08 2401.200-2431.200
STARS 04 Dec 04:35:48 04:40:05 49° 260° (W) 04:44:24 437.465
ITAMSAT 1 04 Dec 04:54:33 04:56:51 13° 297° (WNW) 04:59:10 435.822/435.867
NOAA 15 04 Dec 05:04:31 05:04:58 10° 91° (E) 05:05:25 137.62
CUBESAT XI-V 04 Dec 05:10:23 05:14:29 32° 263° (W) 05:18:35 437.345
GOMX 1 04 Dec 05:31:05 05:36:15 41° 98° (E) 05:41:23 467.674
HORYU 2 04 Dec 05:32:04 05:36:30 75° 103° (ESE) 05:40:54 437.375
BRITE-PL 04 Dec 05:43:24 05:48:47 66° 285° (WNW) 05:54:23 437.365/2234.400
AO-7 04 Dec 05:43:26 05:49:39 24° 302° (WNW) 05:55:55 29.400- 29.500
BEESAT 3 04 Dec 05:46:05 05:49:52 52° 301° (WNW) 05:53:44 437.485
YUBILEINY 04 Dec 05:51:54 06:00:04 40° 76° (ENE) 06:08:11 435.215
DOVE 4 04 Dec 05:53:30 05:58:00 28° 95° (E) 06:02:22 437.250
LilacSat-2 04 Dec 05:57:47 06:01:16 35° 98° (E) 06:04:44 437.200
NOAA 18 04 Dec 06:01:01 06:05:24 24° 96° (E) 06:09:45 137.9125
PHONESAT 2.4 04 Dec 06:06:36 06:09:15 84° 202° (SSW) 06:11:54 2401.200-2431.200
SO-50 04 Dec 06:07:14 06:11:43 69° 243° (WSW) 06:16:08 436.795
CUTE-I 04 Dec 06:09:59 06:15:08 48° 100° (E) 06:20:13 437.470
BEESAT 2 04 Dec 06:10:18 06:14:11 66° 300° (WNW) 06:18:09 435.950
Cosmos 2491 04 Dec 06:15:24 06:22:52 32° 85° (E) 06:30:17 435.465 / 435.565
STRAND 1 04 Dec 06:15:48 06:20:34 40° 71° (ENE) 06:25:21 437.568
Cosmos 2504 04 Dec 06:27:56 06:35:37 33° 73° (ENE) 06:42:54 435.465 / 435.565
Cubesat XI-IV 04 Dec 06:35:04 06:40:26 84° 102° (ESE) 06:45:44 437.490
HO-68 04 Dec 06:36:11 06:40:19 16° 92° (E) 06:44:24 435.675
NOAA 15 04 Dec 06:39:56 06:45:13 78° 285° (WNW) 06:50:29 137.62
CANX-2 04 Dec 06:54:56 06:57:36 16° 94° (E) 07:00:14 2200.000
RS-15 04 Dec 07:05:48 07:16:54 55° 110° (ESE) 07:28:32 29.354- 29.394
GOMX 1 04 Dec 07:09:45 07:14:00 24° 292° (WNW) 07:18:14 467.674
SEEDS 04 Dec 07:24:30 07:27:39 20° 95° (E) 07:30:48 437.485
PRISM 04 Dec 07:26:53 07:27:48 11° 65° (ENE) 07:28:43 437.425
CINEMA 3 04 Dec 07:27:37 07:32:24 64° 100° (E) 07:36:56 145.822/145.860
DOVE 4 04 Dec 07:30:58 07:35:35 31° 290° (WNW) 07:40:05 437.250
LilacSat-2 04 Dec 07:33:37 07:35:11 12° 292° (WNW) 07:36:46 437.200
AIST 1 04 Dec 07:39:05 07:43:26 60° 267° (W) 07:47:45
COMPASS 1 04 Dec 07:39:09 07:42:12 20° 95° (E) 07:45:16 437.405
NOAA 18 04 Dec 07:41:01 07:46:07 39° 290° (WNW) 07:51:10 137.9125
PHONESAT 2.4 04 Dec 07:43:43 07:44:10 10° 217° (SW) 07:44:37 2401.200-2431.200
YUBILEINY 04 Dec 07:48:47 07:56:43 40° 273° (W) 08:04:40 435.215
CUTE-I 04 Dec 07:51:07 07:54:45 19° 295° (WNW) 07:58:23 437.470
STRAND 1 04 Dec 07:56:06 07:59:50 20° 265° (W) 08:03:35 437.568
CUBEBUG 2 04 Dec 08:00:24 08:04:20 31° 97° (E) 08:08:07 437.445
FUNcube-1 04 Dec 08:08:03 08:09:34 12° 92° (E) 08:11:04 145.935
Cosmos 2491 04 Dec 08:10:54 08:19:17 48° 282° (WNW) 08:27:42 435.465 / 435.565
CUTE 1.7 + AOD 2 04 Dec 08:11:49 08:15:59 65° 285° (WNW) 08:20:10 437.475
Cubesat XI-IV 04 Dec 08:18:23 08:19:43 11° 299° (WNW) 08:21:04 437.490
AIST 2 04 Dec 08:18:35 08:22:37 65° 117° (ESE) 08:26:43 435.215
Cosmos 2504 04 Dec 08:20:53 08:29:10 49° 271° (W) 08:37:01 435.465 / 435.565
HO-68 04 Dec 08:21:25 08:28:37 78° 287° (WNW) 08:35:48 435.675
CANX-2 04 Dec 08:29:42 08:33:30 33° 287° (WNW) 08:37:17 2200.000
Oscar 11 04 Dec 08:39:31 08:43:17 29° 97° (E) 08:47:01 145.826/435.025
AAUSAT CUBESAT 2 04 Dec 08:45:35 08:49:43 79° 284° (WNW) 08:53:51 437.432
UWE-3 04 Dec 08:47:03 08:51:22 73° 102° (ESE) 08:55:32 435.000/436.395/437.385
UNISAT 6 04 Dec 08:53:26 08:57:17 26° 70° (ENE) 09:01:07 437.425
PRISM 04 Dec 08:58:39 09:02:35 51° 260° (W) 09:06:34 437.425
SEEDS 04 Dec 08:59:48 09:03:17 26° 289° (WNW) 09:06:46 437.485
CINEMA 3 04 Dec 09:07:07 09:08:51 12° 296° (WNW) 09:10:34 145.822/145.860
COMPASS 1 04 Dec 09:14:13 09:17:42 27° 288° (WNW) 09:21:11 437.405
RS-15 04 Dec 09:18:33 09:29:36 44° 311° (NW) 09:41:12 29.354- 29.394
TIGRISAT 04 Dec 09:23:17 09:27:49 50° 74° (ENE) 09:32:21 435.000
ANTELSAT 04 Dec 09:24:09 09:28:44 55° 75° (ENE) 09:33:18 437.575/2403.000
ZACube-1 04 Dec 09:33:01 09:37:08 52° 285° (WNW) 09:41:11 437.345
CUBEBUG 2 04 Dec 09:37:38 09:40:41 19° 292° (WNW) 09:43:39 437.445
JAS-2 04 Dec 09:39:57 09:44:37 21° 67° (ENE) 09:48:56 435.910
FUNcube-1 04 Dec 09:42:01 09:46:02 44° 286° (WNW) 09:49:58 145.935
HUMSAT D 04 Dec 09:43:33 09:47:01 27° 97° (E) 09:50:29 437.325/437.525
NANOSAT C BR1 04 Dec 09:59:48 10:01:21 12° 66° (ENE) 10:02:55 145.865
AIST 2 04 Dec 10:00:02 10:01:31 12° 313° (NW) 10:02:59 435.215
DELFI C3 04 Dec 10:02:12 10:06:11 78° 282° (WNW) 10:10:09 145.870
QB50P2 04 Dec 10:02:39 10:05:06 15° 67° (ENE) 10:07:35 145.880/145.840
POLYITAN 1 04 Dec 10:03:23 10:05:43 15° 67° (ENE) 10:08:04 437.675
